Dryden, TX

6:46 PM CDT on October 20, 2017 (GMT -0500)
Dryden

Weather History for K6R6 - December, 2012

Change the Weather History Date:

Tuesday, December 18, 2012

  Actual Average (KFST) Record (KFST)
Temperature  
Mean Temperature 64 °F -  
Max Temperature 82 °F 58 °F 79 °F (2008)
Min Temperature 46 °F 33 °F 12 °F (1996)
Degree Days  
Heating Degree Days 1    
Growing Degree Days 14 (Base 50)    
Moisture  
Dew Point 17 °F    
Average Humidity 21    
Maximum Humidity 33    
Minimum Humidity 7    
Precipitation  
Precipitation 0.00 in - - ()
Sea Level Pressure  
Sea Level Pressure 29.78 in    
Wind  
Wind Speed 8 mph (SW)    
Max Wind Speed 13 mph    
Max Gust Speed -    
Averages and records for this station are not official NWS values.
T = Trace of Precipitation, MM = Missing Value Source: NWS Daily Summary

Daily Weather History Graph

Daily Weather History Graph

Search for Another Location

Airport or City:

Trip Planner

Search our weather history database for the weather conditions in past years. The results will help you decide how hot, cold, wet, or windy it might be!

Date:

Astronomy

Dec. 18, 2012 Rise Set
Actual Time 7:39 AM CST 5:52 PM CST
Civil Twilight 7:12 AM CST 6:18 PM CST
Nautical Twilight 6:43 AM CST 6:48 PM CST
Astronomical Twilight 6:13 AM CST 7:17 PM CST
Moon 11:43 AM CST (12/18) 11:54 PM CST (12/18)
Length of Visible Light 11h 05m
Length of Day
10h 12m
Waxing Crescent, 35% of the Moon is Illuminated
Dec 18
Waxing Crescent
Dec 19
First Quarter
Dec 28
Full
Jan 4
Last Quarter
Jan 11
New

Hourly Weather History & Observations

Time (CST) Temp. Dew Point Humidity Pressure Visibility Wind Dir Wind Speed Gust Speed Precip Events Conditions
12:53 AM 55.0 °F 18.0 °F 23% 29.87 in - WNW 9.2 mph - N/A   Unknown
1:53 AM 53.1 °F 18.0 °F 25% 29.85 in - West 9.2 mph - N/A   Unknown
2:53 AM 52.0 °F 18.0 °F 26% 29.84 in - Calm Calm - N/A   Unknown
3:53 AM 48.0 °F 18.0 °F 30% 29.83 in - South 4.6 mph - N/A   Unknown
4:53 AM 46.9 °F 18.0 °F 32% 29.82 in - SW 11.5 mph - N/A   Unknown
5:53 AM 50.0 °F 19.0 °F 29% 29.81 in - WSW 10.4 mph - N/A   Unknown
6:53 AM 48.9 °F 19.0 °F 31% 29.82 in - WSW 10.4 mph - N/A   Unknown
7:53 AM 48.0 °F 19.9 °F 33% 29.84 in - WSW 11.5 mph - N/A   Unknown
8:53 AM 55.9 °F 19.9 °F 25% 29.85 in - SW 4.6 mph - N/A   Unknown
9:53 AM 66.9 °F 18.0 °F 15% 29.83 in - West 12.7 mph - N/A   Unknown
10:53 AM 73.0 °F 16.0 °F 11% 29.82 in - West 10.4 mph - N/A   Unknown
11:53 AM 75.9 °F 14.0 °F 10% 29.80 in - SW 9.2 mph - N/A   Unknown
12:53 PM 75.9 °F 12.9 °F 9% 29.76 in - Variable 4.6 mph - N/A   Unknown
1:53 PM 80.1 °F 12.9 °F 8% 29.73 in - South 6.9 mph - N/A   Unknown
2:53 PM 82.0 °F 12.0 °F 7% 29.70 in - SSW 6.9 mph - N/A   Unknown
3:53 PM 82.9 °F 12.0 °F 7% 29.70 in - SSE 8.1 mph - N/A   Unknown
4:53 PM 78.1 °F 17.1 °F 10% 29.71 in - SE 8.1 mph - N/A   Unknown
5:53 PM 71.1 °F 15.1 °F 12% 29.70 in - SE 5.8 mph - N/A   Unknown
6:53 PM 64.0 °F 17.1 °F 16% 29.73 in - SE 5.8 mph - N/A   Unknown
7:53 PM 57.9 °F 19.0 °F 22% 29.74 in - Calm Calm - N/A   Unknown
8:53 PM 55.0 °F 19.9 °F 25% 29.74 in - NNE 5.8 mph - N/A   Unknown
9:53 PM 54.0 °F 21.0 °F 28% 29.72 in - North 6.9 mph - N/A   Unknown
10:53 PM 54.0 °F 21.9 °F 29% 29.70 in - NNW 4.6 mph - N/A   Unknown
11:53 PM 53.1 °F 21.9 °F 30% 29.69 in - NW 6.9 mph - N/A   Unknown